Notices

What's New in latest Release from April 7th, 2021:

- Updated Glossary, including Speed of Maximum Gust, and Total Hourly Precipitation

- Updated national and regional climate services offices contacts and prices information

- Addition of station inventory lists for 1981-2010, 1971-2000, and 1961-1990 Normals.

If you haven't already, please take our survey and provide feedback about our website: https://eccc.sondage-survey.ca/f/LanguageSelection.aspx?s=442ca660-fcf1-47c0-95a9-59707d6fd709

Hourly Data Report for January 21, 2004

TORONTO CITY
ONTARIO

43°40'00.000" N
79°24'00.000" W
112.50 m
6158355
71508
XTO

Download Data

Hourly Data (January 2004)
Hourly Data Report for January 21, 2004
TIME
LST
Temp Definition
°C
Dew Point Definition
°C
Rel Hum Definition
%
Precip. Amount Definition
mm

Wind Dir Definition
10's deg

Wind Spd Definition
km/h
Visibility Definition
km
Stn Press Definition
kPa
Hmdx Definition


Wind Chill Definition


Weather Definition


00:00 -12.4 -16.0 74   LegendMM LegendMM LegendMM 101.02     LegendNANA
01:00 -12.8 -16.3 75   LegendMM LegendMM LegendMM 101.02     LegendNANA
02:00 -12.2 -15.7 75   LegendMM LegendMM LegendMM 101.00     LegendNANA
03:00 -12.6 -16.2 74   LegendMM LegendMM LegendMM 100.98     LegendNANA
04:00 -12.2 -15.6 76   LegendMM LegendMM LegendMM 100.95     LegendNANA
05:00 -12.5 -15.8 76   LegendMM LegendMM LegendMM 100.94     LegendNANA
06:00 -13.7 -16.5 79   LegendMM LegendMM LegendMM 100.91     LegendNANA
07:00 -11.7 -14.7 78   LegendMM LegendMM LegendMM 100.88     LegendNANA
08:00 -10.9 -13.8 79   LegendMM LegendMM LegendMM 100.84     LegendNANA
09:00 -10.3 -13.2 79   LegendMM LegendMM LegendMM 100.79     LegendNANA
10:00 -8.1 -13.2 67   LegendMM LegendMM LegendMM 100.72     LegendNANA
11:00 -6.1 -14.0 54   LegendMM LegendMM LegendMM 100.64     LegendNANA
12:00 -6.3 -16.4 45   LegendMM LegendMM LegendMM 100.51     LegendNANA
13:00 -7.1 -16.5 47   LegendMM LegendMM LegendMM 100.39     LegendNANA
14:00 -6.7 -14.9 52   LegendMM LegendMM LegendMM 100.28     LegendNANA
15:00 -5.5 -11.8 61   LegendMM LegendMM LegendMM 100.09     LegendNANA
16:00 -5.2 -9.3 73   LegendMM LegendMM LegendMM 99.97     LegendNANA
17:00 -5.4 -9.0 76   LegendMM LegendMM LegendMM 99.86     LegendNANA
18:00 -5.4 -8.6 78   LegendMM LegendMM LegendMM 99.76     LegendNANA
19:00 -5.3 -6.6 91   LegendMM LegendMM LegendMM 99.68     LegendNANA
20:00 -4.8 -6.9 85   LegendMM LegendMM LegendMM 99.56     LegendNANA
21:00 -4.2 -6.3 85   LegendMM LegendMM LegendMM 99.39     LegendNANA
22:00 -3.8 -5.0 91   LegendMM LegendMM LegendMM 99.27     LegendNANA
23:00 -2.8 -3.9 92   LegendMM LegendMM LegendMM 99.18     LegendNANA

Notes on Data Quality.

Legend

  • E = Estimated
  • M = Missing
  • NA = Not Available*
  • [empty] = Indicates an unobserved value
Date modified: